ISS (25544 NORAD) Tracking and Keplerian Element Data.

This shows tracking and keplerian element data for the satellite.

Feedback or suggestion? Click here.

Epoch Orbit2507
Epoch Day81.77968429
Epoch Year2018
Argument of Perigee245.8628
Mean Anonmoly114.2341
Mean Motion15.54120982
Decay Rate0.00016717
L11 25544U 98067A 18081.77968429 .00016717 00000-0 10270-3 0 9029
L22 25544 51.6393 89.4809 0001759 245.8628 114.2341 15.54120982 25071

Live tracking and technical data element details for ISS (NORAD 25544). ISS can be tracked NOW for your location showing map with azimuth and elevation plus other details from your city location.

Tracking and technical details about the satellite: track the satellite on the map from your city or location and see movement details for azimuth, elevation, latitude, longitude, range, height, and movement on the map or in text.

Es'hailsat 2 (coming in 2018)

IsCatalogInMostPopularTable: catalog: 25544, numindb: 1265
Update: records affected: 1

GetName: 25544 ISS

Hit Count: updated at: Thu, 22 Mar 2018 13:42:50 GMT